AZU2713 SBKP-SBCG

Flight info

Callsign AZU2713
Flight time N/A
Altitude 38000
Route EGEVA UM415 FIGOS
Aircraft A20N/M-SDE2E3FGHIRWXY/LB1

Departure

Time N/A
Airport Viracopos International Airport (SBKP)

Arrival

Time 2026-04-30 06:38
Airport Campo Grande Airport (SBCG)
Time Latitude Longitude Altitude Speed Heading
2026-04-30 05:13 -23.11795 -47.51884 18506 ft 354 kts 270°
2026-04-30 05:13 -23.11860 -47.54601 19065 ft 357 kts 270°
2026-04-30 05:14 -23.11923 -47.57277 19613 ft 360 kts 270°
2026-04-30 05:14 -23.11987 -47.60006 20174 ft 363 kts 270°
2026-04-30 05:14 -23.12052 -47.62766 20708 ft 365 kts 270°
2026-04-30 05:14 -23.12112 -47.65285 21190 ft 368 kts 270°
2026-04-30 05:15 -23.12114 -47.65359 21200 ft 368 kts 270°
2026-04-30 05:15 -23.12181 -47.68199 21740 ft 370 kts 270°
2026-04-30 05:15 -23.12246 -47.70972 22223 ft 373 kts 270°
2026-04-30 05:15 -23.12312 -47.73806 22709 ft 375 kts 270°
2026-04-30 05:16 -23.12377 -47.76653 23054 ft 379 kts 270°
2026-04-30 05:16 -23.12444 -47.79521 23150 ft 378 kts 270°
2026-04-30 05:16 -23.12510 -47.82381 23165 ft 378 kts 271°
2026-04-30 05:16 -23.12574 -47.85241 23160 ft 378 kts 271°
2026-04-30 05:17 -23.12636 -47.88074 23265 ft 381 kts 271°
2026-04-30 05:17 -23.12697 -47.90956 23800 ft 381 kts 271°
2026-04-30 05:17 -23.12757 -47.93857 24265 ft 384 kts 271°
2026-04-30 05:17 -23.12818 -47.96771 24703 ft 386 kts 271°
2026-04-30 05:18 -23.12859 -47.98710 24986 ft 387 kts 271°
2026-04-30 05:18 -23.12941 -48.02609 25555 ft 390 kts 271°
2026-04-30 05:18 -23.13003 -48.05566 25932 ft 393 kts 271°
2026-04-30 05:18 -23.13065 -48.08545 26318 ft 395 kts 271°
2026-04-30 05:19 -23.13128 -48.11540 26675 ft 398 kts 271°
2026-04-30 05:19 -23.13169 -48.13537 26908 ft 399 kts 271°
2026-04-30 05:19 -23.13229 -48.16566 27270 ft 401 kts 271°
2026-04-30 05:19 -23.13309 -48.20594 27756 ft 403 kts 271°
2026-04-30 05:20 -23.13348 -48.22658 27980 ft 404 kts 271°
2026-04-30 05:20 -23.13408 -48.25684 28258 ft 407 kts 270°
2026-04-30 05:20 -23.13469 -48.28766 28587 ft 409 kts 270°
2026-04-30 05:20 -23.13530 -48.31868 28878 ft 410 kts 270°
2026-04-30 05:21 -23.13590 -48.34981 29203 ft 412 kts 271°
2026-04-30 05:21 -23.13648 -48.38099 29471 ft 415 kts 271°
2026-04-30 05:21 -23.13706 -48.41247 29738 ft 417 kts 270°
2026-04-30 05:21 -23.13764 -48.44367 30030 ft 418 kts 270°
2026-04-30 05:22 -23.13823 -48.47534 30307 ft 420 kts 270°
2026-04-30 05:22 -23.13880 -48.50730 30594 ft 422 kts 271°
2026-04-30 05:22 -23.13762 -48.53912 30905 ft 422 kts 276°
2026-04-30 05:22 -23.13356 -48.57079 31164 ft 424 kts 281°
2026-04-30 05:23 -23.12664 -48.60193 31500 ft 424 kts 287°
2026-04-30 05:23 -23.11728 -48.63229 31888 ft 423 kts 289°
2026-04-30 05:23 -23.10778 -48.66203 32256 ft 422 kts 289°
2026-04-30 05:23 -23.09824 -48.69216 32646 ft 420 kts 289°
2026-04-30 05:24 -23.08876 -48.72214 33035 ft 419 kts 288°
2026-04-30 05:24 -23.07931 -48.75202 33394 ft 418 kts 288°
2026-04-30 05:24 -23.06985 -48.78185 33744 ft 416 kts 288°
2026-04-30 05:24 -23.06041 -48.81155 34090 ft 415 kts 288°
2026-04-30 05:25 -23.05100 -48.84116 34370 ft 415 kts 288°
2026-04-30 05:25 -23.04156 -48.87076 34621 ft 415 kts 288°
2026-04-30 05:25 -23.03214 -48.90035 34906 ft 414 kts 288°
2026-04-30 05:25 -23.02285 -48.92950 35226 ft 412 kts 288°
2026-04-30 05:26 -23.01347 -48.95890 35533 ft 411 kts 288°
2026-04-30 05:26 -23.00408 -48.98828 35795 ft 411 kts 288°
2026-04-30 05:26 -22.99474 -49.01752 36055 ft 410 kts 288°
2026-04-30 05:26 -22.98538 -49.04680 36331 ft 409 kts 288°
2026-04-30 05:27 -22.97604 -49.07600 36561 ft 409 kts 288°
2026-04-30 05:27 -22.96669 -49.10519 36808 ft 408 kts 288°
2026-04-30 05:27 -22.95739 -49.13420 37166 ft 404 kts 288°
2026-04-30 05:27 -22.94832 -49.16248 37481 ft 401 kts 288°
2026-04-30 05:28 -22.93870 -49.19083 37770 ft 398 kts 290°
2026-04-30 05:28 -22.92836 -49.21877 37943 ft 398 kts 290°
2026-04-30 05:28 -22.91782 -49.24669 38095 ft 399 kts 290°
2026-04-30 05:28 -22.90735 -49.27462 38087 ft 398 kts 290°
2026-04-30 05:29 -22.88834 -49.33053 38090 ft 397 kts 287°
2026-04-30 05:29 -22.87087 -49.38740 38096 ft 397 kts 287°
2026-04-30 05:30 -22.85341 -49.44402 38088 ft 397 kts 287°
2026-04-30 05:30 -22.83549 -49.50078 38091 ft 398 kts 288°
2026-04-30 05:31 -22.81637 -49.55713 38085 ft 398 kts 289°
2026-04-30 05:31 -22.79741 -49.61314 38081 ft 398 kts 288°
2026-04-30 05:32 -22.77841 -49.66961 38083 ft 398 kts 288°
2026-04-30 05:32 -22.75940 -49.72607 38092 ft 398 kts 289°
2026-04-30 05:33 -22.74037 -49.78257 38083 ft 399 kts 288°
2026-04-30 05:33 -22.72145 -49.83867 38081 ft 399 kts 289°
2026-04-30 05:34 -22.70232 -49.89523 38082 ft 399 kts 289°
2026-04-30 05:34 -22.68319 -49.95178 38083 ft 400 kts 289°
2026-04-30 05:35 -22.66400 -50.00838 38085 ft 400 kts 289°
2026-04-30 05:35 -22.64481 -50.06497 38091 ft 400 kts 289°
2026-04-30 05:36 -22.62575 -50.12118 38087 ft 400 kts 289°
2026-04-30 05:36 -22.60669 -50.17774 38090 ft 400 kts 289°
2026-04-30 05:37 -22.58759 -50.23438 38078 ft 400 kts 289°
2026-04-30 05:37 -22.56828 -50.29095 38076 ft 400 kts 289°
2026-04-30 05:38 -22.54890 -50.34701 38074 ft 399 kts 289°
2026-04-30 05:38 -22.52947 -50.40331 38071 ft 399 kts 289°
2026-04-30 05:39 -22.51007 -50.45956 38069 ft 399 kts 289°
2026-04-30 05:39 -22.49063 -50.51579 38070 ft 399 kts 289°
2026-04-30 05:40 -22.47128 -50.57169 38070 ft 399 kts 289°
2026-04-30 05:40 -22.45180 -50.62790 38075 ft 399 kts 289°
2026-04-30 05:41 -22.43237 -50.68390 38070 ft 399 kts 289°
2026-04-30 05:41 -22.41282 -50.74018 38067 ft 399 kts 289°
2026-04-30 05:42 -22.39329 -50.79630 38065 ft 399 kts 289°
2026-04-30 05:42 -22.37379 -50.85235 38061 ft 398 kts 289°
2026-04-30 05:43 -22.35437 -50.90803 38060 ft 398 kts 289°
2026-04-30 05:43 -22.33483 -50.96397 38053 ft 398 kts 289°
2026-04-30 05:44 -22.31525 -51.01997 38052 ft 398 kts 289°
2026-04-30 05:44 -22.29566 -51.07593 38050 ft 398 kts 289°
2026-04-30 05:45 -22.27599 -51.13206 38050 ft 398 kts 289°
2026-04-30 05:45 -22.25647 -51.18767 38052 ft 398 kts 289°
2026-04-30 05:46 -22.23681 -51.24358 38040 ft 398 kts 289°
2026-04-30 05:46 -22.21714 -51.29950 38040 ft 398 kts 289°
2026-04-30 05:47 -22.19746 -51.35541 38041 ft 399 kts 289°
2026-04-30 05:47 -22.17772 -51.41136 38042 ft 399 kts 289°
2026-04-30 05:48 -22.15823 -51.46733 38040 ft 399 kts 288°
2026-04-30 05:48 -22.13910 -51.52350 38037 ft 399 kts 288°
2026-04-30 05:49 -22.11986 -51.57970 38036 ft 399 kts 288°
2026-04-30 05:49 -22.10069 -51.63554 38038 ft 400 kts 289°
2026-04-30 05:50 -22.08134 -51.69175 38042 ft 400 kts 289°
2026-04-30 05:50 -22.06193 -51.74810 38040 ft 401 kts 288°
2026-04-30 05:51 -22.04257 -51.80427 38044 ft 402 kts 288°
2026-04-30 05:51 -22.02305 -51.86077 38048 ft 402 kts 289°
2026-04-30 05:52 -22.00348 -51.91741 38054 ft 403 kts 289°
2026-04-30 05:52 -21.98386 -51.97405 38056 ft 403 kts 289°
2026-04-30 05:53 -21.96420 -52.03074 38057 ft 403 kts 289°
2026-04-30 05:53 -21.94468 -52.08705 38056 ft 403 kts 289°
2026-04-30 05:54 -21.92497 -52.14373 38057 ft 403 kts 289°
2026-04-30 05:54 -21.90524 -52.20040 38054 ft 403 kts 289°
2026-04-30 05:55 -21.88571 -52.25652 38053 ft 403 kts 289°
2026-04-30 05:55 -21.86598 -52.31306 38052 ft 403 kts 289°
2026-04-30 05:56 -21.84622 -52.36946 38050 ft 402 kts 289°
2026-04-30 05:56 -21.82659 -52.42543 38042 ft 402 kts 289°
2026-04-30 05:57 -21.80686 -52.48175 38038 ft 401 kts 289°
2026-04-30 05:57 -21.78708 -52.53804 38037 ft 401 kts 289°
2026-04-30 05:58 -21.76731 -52.59427 38038 ft 402 kts 289°
2026-04-30 05:58 -21.74763 -52.65010 38041 ft 402 kts 289°
2026-04-30 05:59 -21.72780 -52.70629 38043 ft 402 kts 289°
2026-04-30 05:59 -21.70782 -52.76288 38044 ft 402 kts 289°
2026-04-30 06:00 -21.68808 -52.81876 38046 ft 402 kts 289°
2026-04-30 06:00 -21.66815 -52.87512 38049 ft 403 kts 289°
2026-04-30 06:01 -21.64820 -52.93145 38048 ft 403 kts 289°
2026-04-30 06:01 -21.62826 -52.98772 38051 ft 402 kts 289°
2026-04-30 06:02 -21.60843 -53.04355 38051 ft 402 kts 289°
2026-04-30 06:02 -21.58845 -53.09972 38047 ft 401 kts 289°
2026-04-30 06:03 -21.56863 -53.15545 38048 ft 401 kts 289°
2026-04-30 06:03 -21.54860 -53.21165 38050 ft 401 kts 289°
2026-04-30 06:04 -21.52858 -53.26776 38053 ft 401 kts 290°
2026-04-30 06:05 -21.49880 -53.35108 38050 ft 401 kts 290°
2026-04-30 06:05 -21.47880 -53.40697 38048 ft 400 kts 290°
2026-04-30 06:06 -21.46198 -53.45322 37813 ft 400 kts 292°
2026-04-30 06:06 -21.44963 -53.47998 37563 ft 399 kts 297°
2026-04-30 06:06 -21.43485 -53.50534 37316 ft 401 kts 302°
2026-04-30 06:06 -21.41854 -53.52972 37061 ft 403 kts 304°
2026-04-30 06:07 -21.39923 -53.55184 36509 ft 409 kts 315°
2026-04-30 06:07 -21.37770 -53.57200 35662 ft 414 kts 316°
2026-04-30 06:07 -21.35550 -53.59241 34437 ft 426 kts 316°
2026-04-30 06:07 -21.33311 -53.61298 33120 ft 432 kts 316°
2026-04-30 06:08 -21.31009 -53.63420 31655 ft 438 kts 316°
2026-04-30 06:08 -21.28681 -53.65572 30139 ft 444 kts 316°
2026-04-30 06:08 -21.26338 -53.67742 28896 ft 443 kts 317°
2026-04-30 06:08 -21.24023 -53.69887 27940 ft 435 kts 317°
2026-04-30 06:09 -21.21756 -53.71988 27056 ft 426 kts 317°
2026-04-30 06:09 -21.19531 -53.74047 26188 ft 418 kts 317°
2026-04-30 06:09 -21.17351 -53.76065 25308 ft 410 kts 317°
2026-04-30 06:09 -21.15208 -53.78049 24435 ft 403 kts 317°
2026-04-30 06:10 -21.13125 -53.79978 23572 ft 399 kts 317°
2026-04-30 06:10 -21.11027 -53.81918 22700 ft 396 kts 317°
2026-04-30 06:10 -21.08949 -53.83840 21820 ft 391 kts 317°
2026-04-30 06:10 -21.06896 -53.85738 20972 ft 390 kts 317°
2026-04-30 06:11 -21.04838 -53.87639 20319 ft 387 kts 317°
2026-04-30 06:11 -21.02821 -53.89504 19963 ft 378 kts 317°
2026-04-30 06:11 -21.00851 -53.91325 19696 ft 380 kts 317°
2026-04-30 06:11 -20.98827 -53.93193 19181 ft 385 kts 317°
2026-04-30 06:12 -20.96798 -53.95063 18630 ft 384 kts 317°
2026-04-30 06:12 -20.94772 -53.96931 18082 ft 380 kts 317°
2026-04-30 06:12 -20.92780 -53.98766 17538 ft 375 kts 317°
2026-04-30 06:12 -20.90816 -54.00575 17003 ft 370 kts 317°
2026-04-30 06:13 -20.88899 -54.02341 16480 ft 366 kts 317°
2026-04-30 06:13 -20.86982 -54.04106 15956 ft 362 kts 317°
2026-04-30 06:13 -20.85086 -54.05852 15436 ft 358 kts 317°
2026-04-30 06:13 -20.83210 -54.07579 14924 ft 353 kts 317°
2026-04-30 06:14 -20.81352 -54.09286 14417 ft 350 kts 317°
2026-04-30 06:14 -20.79515 -54.10974 13916 ft 346 kts 318°
2026-04-30 06:14 -20.77704 -54.12641 13418 ft 343 kts 318°
2026-04-30 06:14 -20.75901 -54.14297 12926 ft 340 kts 318°
2026-04-30 06:15 -20.74119 -54.15933 12442 ft 336 kts 318°
2026-04-30 06:15 -20.72351 -54.17557 11958 ft 334 kts 318°
2026-04-30 06:15 -20.70595 -54.19169 11479 ft 331 kts 318°
2026-04-30 06:15 -20.68853 -54.20769 11000 ft 329 kts 318°
2026-04-30 06:16 -20.67123 -54.22356 10530 ft 327 kts 319°
2026-04-30 06:16 -20.65505 -54.23839 10321 ft 316 kts 319°
2026-04-30 06:17 -20.64321 -54.24924 10226 ft 306 kts 319°
2026-04-30 06:17 -20.62724 -54.26389 9913 ft 300 kts 319°
2026-04-30 06:17 -20.61179 -54.27805 9717 ft 292 kts 319°
2026-04-30 06:17 -20.59626 -54.29221 9593 ft 295 kts 319°
2026-04-30 06:18 -20.58059 -54.30656 9292 ft 298 kts 319°
2026-04-30 06:18 -20.56486 -54.32100 8911 ft 298 kts 319°
2026-04-30 06:18 -20.54918 -54.33538 8530 ft 295 kts 320°
2026-04-30 06:18 -20.53368 -54.34957 8157 ft 292 kts 319°
2026-04-30 06:19 -20.51833 -54.36360 7783 ft 289 kts 320°
2026-04-30 06:19 -20.50924 -54.37192 7561 ft 287 kts 320°
2026-04-30 06:19 -20.49413 -54.38576 7129 ft 286 kts 319°
2026-04-30 06:19 -20.47907 -54.39953 6773 ft 284 kts 319°
2026-04-30 06:20 -20.46907 -54.40863 6536 ft 282 kts 319°
2026-04-30 06:20 -20.45425 -54.42219 6160 ft 279 kts 319°
2026-04-30 06:20 -20.43976 -54.43544 5793 ft 277 kts 319°
2026-04-30 06:20 -20.42513 -54.44878 5404 ft 276 kts 319°
2026-04-30 06:21 -20.41064 -54.46202 5114 ft 272 kts 319°
2026-04-30 06:21 -20.39692 -54.47631 4962 ft 280 kts 311°
2026-04-30 06:21 -20.38388 -54.49172 4821 ft 278 kts 311°
2026-04-30 06:21 -20.37100 -54.50687 4650 ft 275 kts 311°
2026-04-30 06:22 -20.35839 -54.52225 4505 ft 275 kts 304°
2026-04-30 06:22 -20.35146 -54.54072 4342 ft 263 kts 276°
2026-04-30 06:22 -20.35339 -54.55918 4176 ft 243 kts 245°
2026-04-30 06:22 -20.36291 -54.57287 4095 ft 221 kts 217°
2026-04-30 06:23 -20.37419 -54.58281 3965 ft 204 kts 217°
2026-04-30 06:23 -20.38451 -54.59211 3872 ft 186 kts 217°
2026-04-30 06:23 -20.39401 -54.60092 3720 ft 173 kts 218°
2026-04-30 06:23 -20.40252 -54.60908 3551 ft 156 kts 218°
2026-04-30 06:24 -20.41044 -54.61666 3268 ft 164 kts 217°
2026-04-30 06:24 -20.41932 -54.62483 4042 ft 154 kts 217°
2026-04-30 06:24 -20.42750 -54.63228 4824 ft 158 kts 216°
2026-04-30 06:24 -20.43712 -54.63859 5306 ft 171 kts 191°
2026-04-30 06:25 -20.44879 -54.63500 5429 ft 194 kts 141°
2026-04-30 06:25 -20.45742 -54.62324 5749 ft 199 kts 130°
2026-04-30 06:25 -20.46648 -54.61236 6337 ft 194 kts 132°
2026-04-30 06:25 -20.47520 -54.60160 6897 ft 190 kts 125°
2026-04-30 06:26 -20.47817 -54.58792 6991 ft 211 kts 84°
2026-04-30 06:26 -20.47267 -54.57153 6497 ft 258 kts 67°
2026-04-30 06:26 -20.46540 -54.55251 6119 ft 294 kts 70°
2026-04-30 06:26 -20.45838 -54.53076 5608 ft 325 kts 73°
2026-04-30 06:27 -20.45256 -54.50744 5451 ft 309 kts 78°
2026-04-30 06:27 -20.44908 -54.48663 5389 ft 269 kts 83°
2026-04-30 06:27 -20.44516 -54.46846 5368 ft 236 kts 70°
2026-04-30 06:27 -20.43968 -54.45312 5369 ft 207 kts 69°
2026-04-30 06:28 -20.43454 -54.43897 5420 ft 210 kts 69°
2026-04-30 06:28 -20.42917 -54.42418 5983 ft 215 kts 69°
2026-04-30 06:28 -20.42382 -54.40950 6957 ft 211 kts 69°
2026-04-30 06:28 -20.41855 -54.39481 7797 ft 214 kts 69°
2026-04-30 06:29 -20.41317 -54.37983 8427 ft 221 kts 69°
2026-04-30 06:29 -20.40753 -54.36417 8455 ft 229 kts 69°
2026-04-30 06:29 -20.40195 -54.34853 8410 ft 221 kts 69°
2026-04-30 06:29 -20.39547 -54.33461 8306 ft 201 kts 43°
2026-04-30 06:30 -20.38324 -54.32843 7610 ft 206 kts 358°
2026-04-30 06:30 -20.37009 -54.33397 7074 ft 212 kts 317°
2026-04-30 06:30 -20.36179 -54.34698 6746 ft 213 kts 295°
2026-04-30 06:30 -20.35599 -54.36125 6467 ft 204 kts 291°
2026-04-30 06:31 -20.35183 -54.37508 6363 ft 187 kts 283°
2026-04-30 06:31 -20.34947 -54.38882 6345 ft 189 kts 277°
2026-04-30 06:31 -20.34835 -54.40290 6167 ft 193 kts 272°
2026-04-30 06:31 -20.34784 -54.41696 5920 ft 185 kts 269°
2026-04-30 06:32 -20.34862 -54.43041 5936 ft 187 kts 265°
2026-04-30 06:32 -20.35013 -54.44428 5767 ft 186 kts 261°
2026-04-30 06:32 -20.35218 -54.45786 5623 ft 185 kts 259°
2026-04-30 06:32 -20.35481 -54.47077 5517 ft 172 kts 256°
2026-04-30 06:33 -20.35719 -54.48314 5500 ft 166 kts 259°
2026-04-30 06:33 -20.35936 -54.49499 5348 ft 161 kts 258°
2026-04-30 06:33 -20.36165 -54.50679 4964 ft 161 kts 256°
2026-04-30 06:33 -20.36496 -54.51789 4857 ft 156 kts 245°
2026-04-30 06:34 -20.37020 -54.52844 4756 ft 164 kts 242°
2026-04-30 06:34 -20.37472 -54.53951 4334 ft 163 kts 248°
2026-04-30 06:34 -20.37762 -54.55098 3902 ft 158 kts 259°
2026-04-30 06:34 -20.37921 -54.56364 3800 ft 187 kts 256°
2026-04-30 06:35 -20.38354 -54.57639 3534 ft 172 kts 237°
2026-04-30 06:35 -20.39073 -54.58540 3319 ft 147 kts 219°
2026-04-30 06:35 -20.39603 -54.59408 3257 ft 143 kts 242°
2026-04-30 06:35 -20.40051 -54.60369 3122 ft 147 kts 233°
2026-04-30 06:36 -20.40684 -54.61200 3049 ft 143 kts 225°
2026-04-30 06:36 -20.41344 -54.61973 2894 ft 143 kts 219°
2026-04-30 06:36 -20.42076 -54.62687 2775 ft 141 kts 218°
2026-04-30 06:36 -20.42802 -54.63377 2658 ft 138 kts 220°
2026-04-30 06:37 -20.43495 -54.64054 2524 ft 132 kts 217°
2026-04-30 06:37 -20.44182 -54.64710 2379 ft 132 kts 218°
2026-04-30 06:37 -20.44870 -54.65357 2256 ft 140 kts 220°
2026-04-30 06:37 -20.45642 -54.66100 2032 ft 156 kts 219°
2026-04-30 06:38 -20.46422 -54.66843 1880 ft 140 kts 219°
2026-04-30 06:38 -20.47092 -54.67483 1838 ft 115 kts 222°
2026-04-30 06:38 -20.47504 -54.67883 1839 ft 49 kts 222°
2026-04-30 06:38 -20.47673 -54.68045 1839 ft 19 kts 221°
2026-04-30 06:39 -20.47778 -54.68144 1840 ft 23 kts 221°
2026-04-30 06:39 -20.47828 -54.68253 1839 ft 17 kts 291°
2026-04-30 06:39 -20.47763 -54.68338 1838 ft 8 kts 313°
2026-04-30 06:39 -20.47711 -54.68342 1838 ft 9 kts 31°
2026-04-30 06:40 -20.47676 -54.68311 1839 ft 0 kts 43°
2026-04-30 06:40 -20.47643 -54.68277 1839 ft 16 kts 43°
2026-04-30 06:40 -20.47535 -54.68172 1839 ft 27 kts 42°
2026-04-30 06:40 -20.47386 -54.68027 1839 ft 31 kts 42°
2026-04-30 06:41 -20.47217 -54.67865 1838 ft 33 kts 42°
2026-04-30 06:41 -20.47049 -54.67701 1838 ft 31 kts 41°
2026-04-30 06:41 -20.46901 -54.67561 1838 ft 26 kts 41°
2026-04-30 06:41 -20.46756 -54.67449 1839 ft 25 kts 56°
2026-04-30 06:42 -20.46645 -54.67317 1839 ft 24 kts 44°
2026-04-30 06:42 -20.46519 -54.67189 1839 ft 26 kts 42°
2026-04-30 06:42 -20.46390 -54.67094 1838 ft 17 kts
2026-04-30 06:42 -20.46262 -54.67103 1838 ft 20 kts 354°
2026-04-30 06:43 -20.46119 -54.67119 1839 ft 22 kts 354°
2026-04-30 06:43 -20.45979 -54.67135 1839 ft 19 kts 354°
2026-04-30 06:43 -20.45929 -54.67140 1839 ft 0 kts 354°
2026-04-30 06:43 -20.45899 -54.67137 1839 ft 10 kts 15°
2026-04-30 06:44 -20.45862 -54.67060 1839 ft 14 kts 86°
2026-04-30 06:44 -20.45853 -54.66969 1839 ft 11 kts 84°
2026-04-30 06:44 -20.45847 -54.66915 1839 ft 6 kts 84°
2026-04-30 06:44 -20.45837 -54.66891 1839 ft 4 kts 36°
2026-04-30 06:45 -20.45808 -54.66892 1839 ft 6 kts 355°
2026-04-30 06:45 -20.45801 -54.66893 1839 ft 1 kts 355°
2026-04-30 06:45 -20.45793 -54.66894 1839 ft 0 kts 355°